Left ArrowRight Arrow

32.19382, -80.73816

Hourly Observations for May 11, 2016

Temp ( °F °C ) Dew Point ( °F °C ) Humidity (%) Winds ( mph kmh ) Pressure ( in mb ) Visibility ( mi km ) Precip ( " mm )
12:15 am 00:15 Clear 70 21 68 20 94 94 Calm 30.18 1022 10 16 0.00 0.03
12:35 am 00:35 Clear 68 20 68 20 100 100 Calm 30.18 1022 10 16 0.00 0.03
12:55 am 00:55 Clear 68 20 66 19 94 94 Calm 30.18 1022 10 16 0.00 0.03
1:15 am 01:15 Clear 66 19 66 19 100 100 Calm 30.18 1022 10 16 0.00 0.03
1:35 am 01:35 Clear 66 19 66 19 100 100 Calm 30.18 1022 10 16 0.00 0.03
1:55 am 01:55 Clear 66 19 66 19 100 100 Calm 30.18 1022 10 16 0.00 0.03
2:15 am 02:15 Clear 66 19 66 19 100 100 Calm 30.18 1022 10 16 0.00 0.03
2:35 am 02:35 Clear 66 19 64 18 94 94 Calm 30.18 1022 10 16 0.00 0.03
2:55 am 02:55 Clear 64 18 64 18 100 100 Calm 30.18 1022 10 16 0.00 0.03
3:15 am 03:15 Clear 64 18 64 18 100 100 Calm 30.18 1022 9 14 0.00 0.03
3:35 am 03:35 Clear 64 18 64 18 100 100 Calm 30.18 1022 9 14 0.00 0.03
3:55 am 03:55 Clear 64 18 64 18 100 100 Calm 30.18 1022 10 16 0.00 0.03
4:15 am 04:15 Clear 64 18 64 18 100 100 Calm 30.18 1022 10 16 0.00 0.03
4:35 am 04:35 Clear 64 18 64 18 100 100 Calm 30.18 1022 9 14 0.00 0.03
4:55 am 04:55 Clear 64 18 64 18 100 100 Calm 30.18 1022 10 16 0.00 0.03
5:15 am 05:15 Clear with Mist and Fog 64 18 64 18 100 100 Calm 30.18 1022 6 10 0.00 0.03
5:35 am 05:35 Clear 64 18 64 18 100 100 S 3 6 30.18 1022 10 16 0.00 0.03
6:50 am 06:50 Mostly Sunny 64 18 64 18 100 100 Calm 30.18 1022 10 16 N/A
8:50 am 08:50 Mostly Sunny 77 25 68 20 74 74 S 9 15 30.21 1023 10 16 N/A
9:50 am 09:50 Mostly Sunny 81 27 66 19 62 62 WSW 10 17 30.21 1023 10 16 N/A
10:50 am 10:50 Mostly Sunny 84 29 70 21 62 62 SSE 7 11 30.21 1023 10 16 N/A
11:50 am 11:50 Mostly Sunny 86 30 70 21 59 59 SSE 8 13 30.21 1023 10 16 N/A
12:50 pm 12:50 Mostly Sunny 86 30 70 21 59 59 SE 8 13 30.18 1022 10 16 N/A
1:50 pm 13:50 Mostly Sunny 86 30 70 21 59 59 SSE 9 15 30.18 1022 10 16 N/A
2:50 pm 14:50 Mostly Sunny 84 29 70 21 62 62 SSE 10 17 30.18 1022 10 16 N/A
3:50 pm 15:50 Mostly Sunny 82 28 70 21 66 66 S 10 17 30.15 1021 10 16 N/A
4:50 pm 16:50 Mostly Sunny 79 26 68 20 70 70 S 9 15 30.15 1021 10 16 N/A
5:50 pm 17:50 Mostly Sunny 79 26 66 19 65 65 S 12 19 30.15 1021 10 16 N/A
6:50 pm 18:50 Mostly Sunny 77 25 68 20 74 74 S 12 19 30.12 1020 10 16 N/A
8:15 pm 20:15 Clear 75 24 70 21 83 83 SSE 7 11 30.15 1021 10 16 0.00 0.03
8:35 pm 20:35 Clear 75 24 70 21 83 83 S 6 9 30.15 1021 10 16 0.00 0.03
8:55 pm 20:55 Clear 73 23 70 21 89 89 SSE 6 9 30.12 1020 10 16 0.00 0.03
9:15 pm 21:15 Clear 73 23 70 21 89 89 SSE 6 9 30.15 1021 10 16 0.00 0.03
9:35 pm 21:35 Clear 73 23 70 21 89 89 SSE 6 9 30.15 1021 10 16 0.00 0.03
9:55 pm 21:55 Clear 73 23 70 21 89 89 S 7 11 30.15 1021 10 16 0.00 0.03
10:15 pm 22:15 Clear 73 23 70 21 89 89 S 9 15 30.15 1021 10 16 0.00 0.03
10:35 pm 22:35 Clear 73 23 70 21 89 89 SSE 6 9 30.15 1021 10 16 0.00 0.03
10:55 pm 22:55 Clear 73 23 70 21 89 89 S 7 11 30.15 1021 10 16 0.00 0.03
11:15 pm 23:15 Clear 73 23 70 21 89 89 S 6 9 30.15 1021 10 16 0.00 0.03
11:35 pm 23:35 Clear 73 23 70 21 89 89 S 6 9 30.15 1021 10 16 0.00 0.03
11:55 pm 23:55 Clear 73 23 70 21 89 89 S 6 9 30.15 1021 10 16 0.00 0.03

Powered by Vaisala Xweather